User: anonymous   Login
Location: Juniper Campground
(35.7953°N, 106.2814°W)
Time: 13:26:25
(UTC-07:00)
Language:

Envisat - Orbit

View from above orbital plane
View from above orbital plane
View from above satellite
View from above satellite

Ground track
Ground track

The orbit data is extracted from the following two-line orbital elements,

1 27386U 02009A   19047.55841792  .00000008  00000-0  16262-4 0  9998
2 27386  98.1610  74.7587 0001169  96.1805  15.8736 14.37941431888648
Epoch (UTC): 16 February 2019 13:24:07
Eccentricity: 0.0001169
inclination: 98.1610°
perigee height: 764 km
apogee height: 766 km
right ascension of ascending node: 74.7587°
argument of perigee: 96.1805°
revolutions per day: 14.37941431
mean anomaly at epoch: 15.8736°
orbit number at epoch: 88864

The dashed part of the orbit path shows where the satellite is in the earth's shadow,  

DLR